Content
SEND FEEDBACK

Daily
Averages
Monthly
Summary
United Kingdom

STANSTED MOUNTFITCHET, ENGLAND


Home > Europe > United Kingdom > England
Elevation: 348 feet     Latitude: 51 53N     Longitude: 000 14E

WEATHER
 
SELECT A DAY
Number of Records: 300,158;   Date Range: 7/1/96 - 10/19/14
 
SHARE

PRINT THIS DATA

[ ← Previous Day ]
WEATHER ALMANAC - SEPTEMBER 8, 2013
[ Next Day → ]
[ °C ]   °F
Weather ElementAverageHighLow
Temperature52.4 °F60.8 °F (10:50 am)44.6 °F (6:20 am)
Dewpoint45.9 °F50 °F (9:20 am)42.8 °F (6:20 am)
Humidity79.6 %94 % (7:50 am)55 % (10:50 am)
Barometer30.05 in30.06 in (2:20 am)30.04 in (12:50 am)
Wind Speed7.3 mph17.3 mph (2:20 pm)
Weather ElementAverage
Visibility6 mi
Wind DirectionSSW (204 °)

Weather ElementTotal
Precipitation---
Heating Degree Days12.3 (Base 65)
Growing Degree Days2.7 (Base 50)
Averaged from 47 records on September 8, 2013
WEATHER CONDITIONS BREAKOUT
WIND DIRECTION BREAKOUT
WEATHER BY HOUR - SEPTEMBER 8, 2013
[ °C ]   °F
Local TimeTemperatureDewpointHumidityBarometerVisibilityWind DirectionWind SpeedGust SpeedPrecipitationEventsConditions
12:50 AM50.0 °F46.4 °F87 %30.04 inSouth (170°)4.6 mphClear
1:20 AM48.2 °F44.6 °F87 %30.04 inSouth (190°)4.6 mphClear
1:50 AM48.2 °F44.6 °F87 %30.04 inSSE (150°)5.8 mphClear
2:20 AM48.2 °F44.6 °F87 %30.06 inSSE (160°)4.6 mphClear
2:50 AM48.2 °F46.4 °F93 %30.06 inSE (140°)5.8 mphClear
3:20 AM48.2 °F44.6 °F87 %30.06 inVariable2.3 mphClear
3:50 AM46.4 °F44.6 °F93 %30.06 inSouth (170°)3.5 mphClear
4:20 AM46.4 °F44.6 °F93 %30.06 inSouth (180°)2.3 mphClear
4:50 AM46.4 °F44.6 °F93 %30.04 inSouth (180°)4.6 mphClear
5:20 AM46.4 °F44.6 °F93 %30.04 inSouth (190°)4.6 mphClear
5:50 AM46.4 °F44.6 °F93 %30.04 in4.3 miSSW (210°)3.5 mph
6:20 AM44.6 °F42.8 °F93 %30.04 in5.6 miSW (220°)3.5 mph
6:50 AM44.6 °F42.8 °F93 %30.04 in5.6 miSW (220°)5.8 mph
7:20 AM48.2 °F46.4 °F93 %30.06 inWSW (250°)4.6 mphClear
7:50 AM50.0 °F48.2 °F94 %30.06 inSW (230°)6.9 mphClear
8:20 AM51.8 °F48.2 °F88 %30.06 inSW (230°)8.1 mphClear
8:50 AM53.6 °F48.2 °F82 %30.06 inSW (230°)9.2 mphClear
9:20 AM55.4 °F50.0 °F82 %30.06 in6.2 miSW (220°)8.1 mphPartly Cloudy
9:50 AM57.2 °F50.0 °F77 %30.06 in6.2 miSW (230°)6.9 mphPartly Cloudy
10:20 AM59.0 °F46.4 °F63 %30.06 in6.2 miSW (230°)8.1 mphPartly Cloudy
10:50 AM60.8 °F44.6 °F55 %30.06 in6.2 miSSW (210°)8.1 mphPartly Cloudy
11:20 AM59.0 °F44.6 °F59 %30.06 in6.2 miSW (220°)6.9 mphPartly Cloudy
11:50 AM59.0 °F44.6 °F59 %30.06 in6.2 miSW (230°)8.1 mphMostly Cloudy
12:20 PM59.0 °F44.6 °F59 %30.06 in6.2 miWSW (240°)10.4 mphScattered Clouds
12:50 PM60.8 °F46.4 °F59 %30.04 in6.2 miWSW (250°)9.2 mphMostly Cloudy
1:20 PM60.8 °F46.4 °F59 %30.04 in6.2 miSW (230°)6.9 mphScattered Clouds
1:50 PM60.8 °F44.6 °F55 %30.04 in6.2 miSSW (210°)9.2 mphScattered Clouds
2:20 PM55.4 °F46.4 °F72 %30.06 in6.2 miSW (230°)17.3 mphRainLight Rain Showers
2:50 PM59.0 °F48.2 °F67 %30.06 in6.2 miSW (230°)10.4 mphPartly Cloudy
3:20 PM59.0 °F44.6 °F59 %30.06 in6.2 miSSW (210°)12.7 mphScattered Clouds
3:50 PM59.0 °F42.8 °F55 %30.04 in6.2 miSSW (210°)13.8 mphScattered Clouds
4:20 PM57.2 °F44.6 °F63 %30.04 in6.2 miSW (230°)15.0 mphScattered Clouds
4:50 PM53.6 °F48.2 °F82 %30.04 in5.6 miWSW (240°)8.1 mphRainLight Rain
5:20 PM55.4 °F48.2 °F77 %30.04 in6.2 miSSW (210°)10.4 mphRainLight Rain
5:50 PM55.4 °F50.0 °F82 %30.04 in6.2 miSW (230°)10.4 mphPartly Cloudy
6:20 PM55.4 °F48.2 °F77 %30.04 inSW (220°)10.4 mphClear
6:50 PM53.6 °F48.2 °F82 %30.04 inSSW (210°)10.4 mphClear
7:20 PM51.8 °F46.4 °F82 %30.04 inSSW (210°)8.1 mphClear
7:50 PM51.8 °F46.4 °F82 %30.04 inSSW (210°)9.2 mphClear
8:20 PM50.0 °F46.4 °F87 %30.04 inSSW (210°)9.2 mphClear
8:50 PM48.2 °F44.6 °F87 %30.06 in6.2 miSW (220°)5.8 mphPartly Cloudy
9:20 PM50.0 °F44.6 °F82 %30.06 inSouth (190°)5.8 mphClear
9:50 PM50.0 °F46.4 °F87 %30.06 inSouth (170°)3.5 mphClear
10:20 PM48.2 °F44.6 °F87 %30.06 inSouth (170°)4.6 mphClear
10:50 PM48.2 °F44.6 °F87 %30.06 inSouth (190°)4.6 mphClear
11:20 PM48.2 °F44.6 °F87 %30.06 inSouth (180°)4.6 mphClear
11:50 PM46.4 °F44.6 °F93 %30.06 inSW (230°)4.6 mphClear
Hourly data recorded from EGSS, located miles away from Stansted Mountfitchet, England







STORIES FROM OUR PARTNERS